GEFSMA_con_cape1000_192.txt.gz
Probability
55 58 77 65 42 48 58 58 39 52 35 32 23 23 35 39 23 23 52 65 65 71 71 65 68 68 68 68 52 48 52 48 48 48 52 45 42 26 23 32 26 26 26
52 52 68 68 55 45 39 45 35 58 39 35 32 26 39 42 39 39 35 55 68 74 71 71 65 65 55 55 58 45 42 48 48 42 45 35 32 35 23 16 26 19 23
58 61 48 55 55 52 58 55 45 45 45 35 29 32 35 35 32 42 35 45 48 58 74 68 68 68 65 55 48 52 48 55 52 52 42 52 45 32 32 19 13 16 16
65 68 65 45 61 55 55 68 52 48 48 35 26 26 32 42 39 42 45 52 61 45 55 61 58 65 68 52 52 52 48 52 45 45 48 39 39 32 19 19 10 13 13
68 65 84 74 65 61 58 55 48 52 52 45 32 48 35 42 52 35 35 48 52 58 58 61 55 61 45 45 45 48 48 42 42 35 29 29 23 23 13 10 10 13 13
68 68 65 77 52 52 71 68 71 74 58 55 26 23 35 32 35 35 32 29 42 52 48 42 68 55 55 55 52 45 45 42 39 39 32 32 26 29 16 13 10 10 10
65 81 65 77 68 71 74 61 61 58 55 58 58 58 35 35 23 42 39 29 26 35 42 58 61 58 65 39 35 48 48 45 35 39 32 35 35 29 23 13 13 6 6
68 65 81 81 77 81 81 81 87 68 48 58 58 52 42 39 61 6 32 39 39 42 39 32 52 68 68 45 32 35 42 48 35 35 35 32 26 26 23 16 10 10 13
68 77 74 87 87 81 74 81 81 84 71 61 55 45 42 42 32 23 29 26 42 42 39 39 45 45 48 61 55 23 35 39 29 29 32 35 26 23 19 16 10 6 10
77 77 77 81 87 81 87 77 61 81 84 68 68 68 55 55 45 29 35 26 32 42 32 13 29 48 45 58 55 29 16 13 19 19 29 32 32 19 16 16 16 16 13
81 68 77 87 84 84 87 81 84 84 77 71 65 65 52 68 35 48 45 35 26 29 23 32 35 42 39 45 58 32 19 3 6 16 19 19 23 16 19 19 19 19 19
77 68 71 81 81 81 81 81 84 81 84 74 68 58 52 55 58 52 48 52 45 23 16 29 26 29 35 32 26 10 6 0 0 0 0 10 16 13 13 13 13 16 19
68 77 65 77 77 77 84 81 81 84 77 74 74 65 61 61 55 55 48 39 35 23 32 26 32 39 10 29 45 3 3 0 0 0 0 0 0 3 6 13 13 10 10
71 81 74 71 71 71 68 81 74 77 74 68 52 58 65 52 42 52 52 48 39 32 26 23 23 26 13 23 3 0 6 0 0 0 0 0 0 0 0 0 3 3 3
68 71 61 61 71 74 71 74 71 84 74 71 68 65 61 48 52 39 45 45 39 35 35 23 19 16 19 23 0 10 16 0 0 0 0 0 0 0 0 0 0 0 0
77 71 71 68 61 52 61 74 65 68 71 68 71 68 61 55 48 45 45 42 45 48 19 16 19 16 16 0 0 13 13 0 0 0 0 0 0 0 0 0 0 0 0
84 81 77 74 65 52 55 61 55 58 58 61 55 45 55 61 48 45 45 45 39 39 32 16 13 6 16 13 10 10 6 13 6 0 0 0 0 0 0 0 0 0 0
87 84 77 77 61 52 52 52 48 48 45 52 48 52 42 39 42 39 42 32 35 39 29 13 10 6 13 13 10 6 0 0 0 0 0 0 0 0 0 0 0 0 0
87 77 74 71 74 61 55 48 52 52 42 42 45 48 39 32 32 32 42 32 29 13 26 6 3 10 10 6 3 0 0 0 0 0 0 0 0 0 0 0 0 0 0
81 77 74 65 61 55 48 48 45 45 42 42 29 29 26 29 32 29 26 35 29 16 13 10 10 6 6 3 0 0 0 0 0 0 0 0 0 0 0 0 0 0 0
77 77 77 65 58 48 39 42 42 39 42 35 35 29 23 16 16 19 16 23 23 19 13 10 10 6 6 0 0 0 0 0 0 0 0 0 0 0 0 0 0 0 0
74 77 74 68 61 35 19 19 32 39 39 39 39 32 23 19 19 0 0 3 6 16 16 13 6 6 10 3 6 3 6 0 0 0 0 0 0 0 0 0 0 0 0
71 71 71 65 58 35 10 0 6 32 35 35 35 32 16 13 13 16 6 0 0 0 0 13 16 10 10 6 6 3 3 0 0 3 0 0 0 0 0 0 0 0 0
68 68 68 65 61 39 3 0 0 26 32 35 29 29 23 13 13 13 13 13 13 10 3 3 13 13 6 3 6 3 0 0 0 0 0 0 0 0 0 0 0 0 0
74 71 61 61 61 48 3 0 0 32 32 29 29 23 23 23 13 10 13 13 16 13 3 0 0 0 0 0 0 0 0 0 0 0 0 0 0 0 0 0 0 0 0
65 61 61 61 52 48 3 0 0 26 29 29 29 26 10 13 10 3 13 16 16 13 6 3 0 0 0 0 0 0 0 0 0 0 0 0 0 0 0 0 0 0 0

GEFSMA_con_cape1000_198.txt.gz
Probability
84 77 81 87 81 77 81 81 77 77 65 68 55 48 45 48 42 32 32 68 77 84 74 71 65 61 68 68 58 52 52 55 55 61 55 42 35 39 29 26 26 29 29
77 81 87 94 87 87 84 84 74 74 77 74 61 65 61 48 55 61 39 58 74 77 81 74 68 65 55 58 65 55 48 52 55 58 48 45 39 35 29 26 23 23 23
90 90 90 90 94 87 87 87 87 84 74 58 61 61 61 68 65 71 55 52 45 71 81 77 77 74 71 61 58 58 58 52 48 52 45 39 48 39 32 29 29 23 23
90 90 90 87 90 87 94 94 87 74 71 68 65 58 58 84 61 68 58 68 52 42 55 74 74 77 74 65 58 52 52 52 48 45 45 32 39 35 35 29 26 23 19
87 90 94 90 94 90 94 77 84 71 68 74 65 68 61 61 68 65 68 61 68 58 48 45 68 68 65 68 61 55 55 52 45 48 42 39 32 32 32 16 19 23 13
90 94 94 90 94 90 87 84 84 74 71 77 39 35 68 61 71 58 55 55 65 55 42 42 48 55 68 71 74 65 58 52 52 42 42 32 32 29 23 19 16 13 10
90 94 90 94 94 81 81 87 84 77 68 74 71 58 65 55 52 58 68 55 45 42 42 48 42 42 35 58 68 71 68 58 58 48 45 35 29 26 23 16 13 6 6
90 68 94 90 90 81 84 87 81 77 71 68 74 65 58 61 68 32 65 58 52 48 48 45 71 68 52 35 19 42 68 68 55 48 45 39 35 19 16 16 13 13 6
90 90 87 90 90 81 84 87 87 74 68 71 81 74 61 45 55 61 68 65 65 61 61 58 55 71 61 52 45 32 48 52 52 45 45 48 29 13 16 13 13 13 6
90 94 87 94 90 87 90 94 81 84 74 65 71 74 68 68 39 45 55 58 58 61 65 45 39 55 58 58 45 29 35 35 45 39 32 39 35 16 13 16 16 13 13
90 87 87 87 90 84 90 90 94 87 87 87 74 71 61 65 45 42 29 42 48 61 58 61 61 55 52 48 45 29 23 19 23 29 29 26 23 19 13 16 16 16 16
87 90 84 84 84 87 87 87 90 87 87 94 94 84 68 52 58 39 29 29 32 35 52 55 58 55 55 45 35 19 13 6 6 10 10 19 19 10 13 10 13 10 10
87 87 81 81 84 87 84 87 84 84 90 90 84 81 71 77 65 48 39 39 32 35 48 45 55 52 39 32 32 13 10 0 0 0 0 0 0 3 3 10 10 13 10
87 87 84 81 81 81 74 84 87 90 90 90 65 71 74 68 77 65 61 52 32 39 35 29 32 42 35 32 10 0 3 0 0 0 0 0 0 0 0 0 3 3 3
87 81 77 81 77 74 74 77 77 74 84 77 68 74 74 74 71 68 52 45 26 23 23 29 32 39 19 19 3 10 10 0 0 0 0 0 0 0 0 0 0 0 0
87 84 77 81 77 74 74 77 74 77 68 71 77 77 77 61 58 58 55 58 45 39 26 32 19 23 19 6 0 13 10 3 0 0 0 0 0 0 0 0 0 0 0
94 94 87 81 77 71 74 74 74 71 71 61 68 65 65 58 55 55 52 48 55 45 32 23 26 23 23 16 0 3 3 0 0 0 0 0 0 0 0 0 0 0 0
90 94 87 84 74 74 77 71 71 55 61 58 55 52 52 48 52 48 42 39 35 42 26 19 26 29 23 26 10 6 3 3 3 0 0 0 0 0 0 0 0 0 0
87 84 87 90 84 77 74 71 68 52 55 52 52 48 52 45 45 42 42 39 42 26 32 26 26 29 13 13 6 6 3 3 3 0 0 0 0 0 0 0 0 0 0
87 87 87 87 81 74 71 71 65 65 52 55 48 52 48 42 35 32 29 26 29 32 35 26 23 16 13 13 6 6 3 6 3 0 0 0 0 0 0 0 0 0 0
81 84 81 77 74 71 68 65 55 52 58 55 48 48 45 35 19 26 19 23 29 23 23 19 19 13 13 6 3 3 3 3 3 0 0 0 0 0 0 0 0 0 0
84 84 81 74 74 58 35 29 45 48 55 58 55 55 29 16 13 13 6 10 13 23 23 19 19 16 10 6 6 3 3 3 3 3 0 0 0 0 0 0 0 0 0
87 87 74 74 71 48 19 16 23 39 42 48 55 48 32 19 13 16 10 0 0 10 6 16 19 13 10 10 6 3 3 3 3 3 3 0 0 0 0 0 0 0 0
84 81 77 74 68 48 23 3 10 29 39 45 45 48 48 35 16 23 19 16 16 10 6 3 19 13 13 13 3 3 3 3 3 3 3 0 0 0 0 0 0 0 0
81 77 74 71 65 48 16 3 3 26 45 42 42 35 39 32 13 10 19 19 19 16 10 0 6 6 6 6 3 0 0 0 0 0 3 3 0 0 0 0 0 0 0
77 68 71 61 55 48 13 3 0 26 42 39 45 39 29 19 6 0 13 19 19 13 13 6 0 0 0 0 0 3 0 0 0 0 0 3 0 0 0 0 0 0 0

GEFSMA_con_cape1000_204.txt.gz
Probability
6 0 3 0 3 6 10 6 6 10 6 6 6 6 3 3 3 10 19 81 90 94 87 81 71 58 65 68 68 68 58 55 55 52 48 55 39 32 19 23 29 35 39
6 3 6 3 3 3 6 6 6 6 6 6 6 6 6 6 6 6 10 45 84 94 90 84 81 68 65 61 71 65 65 55 52 55 55 61 58 42 29 32 29 29 29
0 3 3 3 0 0 3 6 6 6 6 6 6 6 6 6 6 6 6 13 42 81 87 81 77 71 71 61 58 68 65 58 58 61 58 55 42 45 48 35 32 29 26
10 10 10 6 3 0 6 6 6 6 3 3 3 3 3 3 3 3 6 6 6 13 55 74 74 74 74 71 61 65 61 61 61 55 48 45 39 29 32 39 39 32 29
16 10 6 6 13 6 6 10 3 3 3 3 6 3 3 3 3 3 3 3 3 3 3 42 68 77 61 68 65 61 61 55 55 48 45 39 42 26 23 26 23 19 19
10 10 6 10 13 6 6 6 3 3 3 6 6 6 6 3 3 3 3 3 0 3 3 6 26 45 58 71 74 71 65 61 58 52 48 42 35 29 26 13 13 13 16
19 13 19 16 10 10 6 3 3 3 3 6 3 3 3 0 0 0 0 3 3 3 6 0 6 10 23 58 68 71 68 68 65 65 52 39 35 35 29 16 6 6 6
23 26 19 16 13 6 3 3 3 3 3 6 3 3 3 0 0 3 0 3 3 3 3 3 3 6 3 10 19 48 68 65 61 55 52 42 39 29 23 19 19 6 3
32 26 26 23 23 10 10 10 6 6 6 3 3 3 3 3 0 3 3 3 0 0 0 6 3 3 3 0 0 16 52 61 58 55 45 42 32 19 13 10 10 6 3
35 32 26 19 19 19 16 13 10 3 3 3 3 3 3 3 3 3 3 3 0 3 3 3 3 6 3 3 0 3 16 39 48 48 48 42 26 19 16 6 6 6 6
42 42 39 35 29 19 16 13 10 3 3 3 3 6 6 6 3 3 3 3 3 6 6 6 3 0 3 0 0 0 10 6 29 32 35 29 23 16 16 13 10 10 10
42 45 52 35 35 32 29 19 6 10 3 3 6 6 6 6 6 6 6 6 6 6 6 3 3 3 6 0 0 3 6 6 3 3 3 10 19 16 23 19 16 16 16
52 42 48 29 29 35 32 23 16 13 13 6 10 10 10 10 10 10 10 6 6 6 3 3 3 3 3 0 0 3 10 3 3 0 0 0 3 3 3 10 10 6 13
52 52 45 35 35 35 42 35 32 23 19 13 13 16 13 13 10 10 10 6 6 3 3 3 3 3 3 3 0 0 0 0 0 0 0 0 0 0 0 3 3 3 3
58 52 52 45 42 42 39 35 35 35 32 19 19 13 13 13 10 10 6 6 6 3 3 3 3 3 3 3 3 0 0 0 0 0 0 0 0 0 0 0 0 0 0
48 48 52 48 48 42 42 32 35 35 35 29 19 19 13 16 13 6 6 6 3 3 3 3 3 3 3 3 3 0 0 0 0 0 0 0 0 0 0 0 0 0 0
52 55 55 52 45 45 42 35 32 39 32 32 29 16 13 6 6 3 0 0 0 0 0 0 0 0 0 0 0 0 0 0 0 0 0 0 0 0 0 0 0 0 0
55 55 55 45 45 48 42 39 32 35 32 32 26 16 13 13 10 6 3 3 3 3 0 0 0 0 0 0 0 0 0 0 0 0 0 0 0 0 0 0 0 0 0
55 55 52 52 48 39 39 32 29 32 26 19 10 10 10 13 16 10 3 0 3 3 0 0 0 0 0 0 0 0 0 0 0 0 0 0 0 0 0 0 0 0 0
52 52 48 48 45 39 39 39 29 26 29 19 10 10 10 10 10 10 10 3 0 0 0 0 0 0 0 0 0 0 0 0 0 0 0 0 0 0 0 0 0 0 0
55 52 48 45 42 39 39 39 35 32 29 23 16 13 13 13 13 6 6 3 0 3 3 0 0 0 0 0 0 0 0 0 0 0 0 0 0 0 0 0 0 0 0
45 52 52 45 39 39 39 35 32 29 23 23 16 13 16 16 13 3 3 3 3 0 0 3 3 3 3 0 0 0 0 0 0 0 0 0 0 0 0 0 0 0 0
48 42 48 48 42 39 32 26 23 26 26 19 16 13 16 16 10 6 6 6 3 3 3 0 0 3 3 3 0 0 0 0 0 0 0 0 0 0 0 0 0 0 0
52 52 52 48 45 39 29 19 6 16 16 23 16 13 13 13 3 3 6 6 6 6 6 3 0 0 3 3 3 0 0 0 0 0 0 0 0 0 0 0 0 0 0
52 52 58 48 48 35 32 13 6 13 16 16 16 16 19 13 6 3 6 6 6 3 0 0 0 0 0 0 0 3 0 0 0 0 0 0 0 0 0 0 0 0 0
52 48 48 39 35 32 19 3 6 6 10 13 16 16 13 10 10 0 6 6 6 3 3 0 0 0 0 0 0 0 3 0 0 0 0 0 0 0 0 0 0 0 0

GEFSMA_con_cape1000_210.txt.gz
Probability
0 0 0 0 0 0 0 3 3 3 6 6 6 6 6 6 6 13 16 45 81 90 84 74 71 65 61 65 58 61 58 55 39 48 42 32 35 32 29 26 39 35 32
0 0 0 0 0 0 0 0 3 6 6 6 6 6 6 6 10 10 16 32 55 90 84 77 68 68 65 65 58 55 58 52 42 45 45 39 48 45 39 32 29 32 35
0 0 0 0 0 0 0 0 6 6 6 6 3 3 3 3 3 6 10 26 32 61 84 84 84 77 71 68 58 58 58 58 58 48 39 32 45 39 42 35 32 32 35
0 0 0 0 3 0 0 3 6 6 3 3 3 3 3 0 3 3 6 13 26 23 48 81 87 77 74 74 68 68 61 68 61 55 48 42 29 35 32 29 35 32 29
0 0 0 0 6 6 6 6 3 3 3 3 3 0 0 0 3 3 6 10 16 19 23 29 77 81 74 65 68 71 65 71 52 48 45 42 42 35 35 23 26 26 26
0 0 0 3 6 6 6 6 3 3 3 3 0 0 3 3 3 6 6 6 6 10 16 10 35 45 61 65 61 71 68 65 58 55 52 39 32 39 29 19 19 16 19
10 10 10 6 6 6 6 3 3 3 3 0 0 3 3 3 0 3 3 6 3 3 6 6 6 23 29 39 55 61 65 58 58 61 58 45 39 29 29 19 10 10 6
13 23 13 10 6 6 3 3 3 0 0 0 3 3 3 3 3 3 3 3 3 3 6 6 6 6 13 19 13 35 48 68 61 58 55 48 39 32 23 16 16 10 6
19 23 16 10 6 3 3 3 0 0 3 0 3 3 3 3 3 3 3 3 3 3 6 6 6 6 6 10 16 10 29 45 42 45 52 42 35 23 23 16 16 16 10
23 23 16 16 6 6 6 6 0 0 0 0 0 3 3 3 6 3 3 3 0 6 6 6 6 6 6 10 10 0 3 19 32 42 42 48 39 19 19 19 19 16 16
23 32 19 13 10 6 6 6 3 0 0 0 0 0 3 3 3 6 6 0 3 6 6 6 6 6 10 10 6 3 0 3 10 23 35 42 35 26 23 19 19 19 16
19 32 29 23 16 13 13 3 6 0 0 0 0 0 0 6 3 3 3 6 6 3 3 3 3 3 6 6 6 3 3 0 0 0 0 13 26 23 26 26 19 16 16
26 35 35 29 16 13 19 16 6 6 3 3 0 0 3 3 3 3 6 6 3 3 3 0 3 3 3 3 6 3 3 0 0 0 0 0 3 6 10 13 16 16 16
32 35 35 35 29 29 19 23 19 16 10 10 6 3 3 6 10 6 6 6 3 3 0 0 3 3 0 0 0 0 0 0 0 0 0 0 0 0 0 0 0 0 0
39 45 39 35 29 26 29 19 16 16 23 13 13 13 6 10 10 10 10 10 10 3 3 0 0 0 0 0 0 0 0 0 0 0 0 0 0 0 0 0 0 0 0
39 42 42 32 29 23 19 16 16 16 26 23 19 13 10 10 10 10 10 3 3 3 6 0 0 0 0 0 0 0 0 0 0 0 0 0 0 0 0 0 0 0 0
35 42 39 35 26 26 32 26 23 23 23 23 23 16 13 13 13 10 3 3 3 3 3 3 3 0 0 0 0 3 0 0 0 0 0 0 0 0 0 0 0 0 0
32 35 35 35 32 29 29 29 29 32 32 29 29 29 23 16 10 10 6 6 6 3 3 0 3 3 0 0 0 0 0 0 0 0 0 0 0 0 0 0 0 0 0
42 42 32 39 39 35 23 29 29 32 32 26 29 29 23 13 13 13 10 6 6 3 3 3 3 3 0 0 0 0 0 0 0 0 0 0 0 0 0 0 0 0 0
42 42 42 39 32 35 32 32 32 32 29 29 23 26 19 10 13 13 13 13 6 3 3 3 3 3 3 0 0 0 0 0 0 0 0 0 0 0 0 0 0 0 0
32 35 35 32 32 35 32 32 39 39 32 29 26 26 16 13 13 10 10 16 10 3 3 3 6 3 0 0 0 0 0 0 0 0 0 0 0 0 0 0 0 0 0
32 26 29 26 26 29 29 23 26 35 35 32 29 23 19 13 13 6 6 6 10 6 3 6 3 3 3 0 0 0 0 0 0 0 0 0 0 0 0 0 0 0 0
26 23 23 23 23 19 19 16 10 26 32 29 29 23 23 16 10 13 6 3 0 0 0 6 3 3 3 3 0 0 0 0 0 0 0 0 0 0 0 0 0 0 0
32 29 19 19 26 19 13 6 3 13 26 32 29 23 23 23 13 16 13 16 16 10 3 3 3 3 0 3 0 0 0 0 0 0 0 0 0 0 0 0 0 0 0
29 23 26 23 29 23 16 10 3 16 26 29 23 23 23 23 13 6 13 13 13 13 0 0 0 3 0 0 0 0 0 0 0 0 0 0 0 0 0 0 0 0 0
32 29 32 29 26 26 16 10 0 13 29 23 19 19 13 13 13 3 10 13 13 10 6 3 0 0 0 0 0 0 0 0 0 0 0 0 0 0 0 0 0 0 0

GEFSMA_con_cape1000_216.txt.gz
Probability
29 29 52 42 32 35 45 45 32 26 26 23 19 26 26 19 10 10 45 65 68 81 77 74 65 71 68 68 65 58 58 55 55 48 45 42 45 29 26 35 39 35 35
48 45 42 58 32 35 32 42 32 42 45 42 29 19 19 13 26 35 35 58 68 71 74 74 74 68 58 55 61 61 58 58 52 55 42 52 48 39 29 32 32 32 29
65 55 45 52 39 45 55 52 39 32 52 39 35 26 26 23 23 29 32 52 55 65 74 71 81 77 68 71 61 65 68 71 58 42 42 45 39 39 35 39 35 39 39
58 81 55 45 55 48 55 61 45 45 42 48 45 42 35 39 32 39 39 45 58 45 68 71 74 77 77 81 65 58 68 71 68 58 52 39 35 35 32 29 29 32 29
55 55 68 71 55 61 61 55 52 48 58 58 35 42 45 39 45 39 32 42 55 58 58 77 74 74 71 71 68 71 68 68 71 71 58 42 42 32 32 23 23 26 29
58 58 65 68 58 71 68 74 71 74 74 74 23 26 42 42 52 55 45 39 58 58 52 52 61 61 68 68 68 74 68 68 74 71 68 55 45 42 32 26 23 26 23
68 77 65 74 65 68 68 58 68 65 55 68 45 45 52 45 45 48 52 45 39 42 52 52 65 68 68 58 58 68 68 68 68 74 74 58 58 48 32 23 19 16 23
77 68 68 74 74 90 77 77 77 61 45 52 48 42 42 48 65 26 52 58 45 52 45 45 58 74 74 74 48 48 55 55 48 61 61 61 55 48 35 29 23 19 16
81 77 81 74 77 71 71 84 81 71 61 55 48 52 42 35 23 26 39 45 58 58 42 39 52 68 65 68 61 35 42 45 45 45 52 55 55 29 29 26 23 19 16
84 84 84 84 77 81 90 71 55 65 77 68 68 71 55 48 39 16 26 29 39 61 48 32 35 61 58 58 61 32 26 35 39 39 45 48 45 32 35 29 32 26 16
84 84 84 87 90 84 87 87 81 84 71 65 65 58 52 58 42 42 32 39 42 42 42 48 48 48 65 55 65 45 19 10 13 23 32 48 45 42 29 32 26 29 19
87 84 84 87 84 84 81 84 77 74 74 74 77 55 48 48 45 48 39 45 58 42 42 48 48 42 48 42 29 16 13 3 3 0 3 13 13 26 26 29 29 32 32
87 84 77 87 84 81 77 74 81 81 77 84 77 65 58 45 48 52 48 39 45 32 45 48 39 32 26 39 42 10 6 0 0 0 0 0 0 0 10 19 23 23 32
84 87 81 74 65 68 68 71 71 77 77 84 65 74 68 58 48 48 45 45 35 35 35 42 35 42 32 29 10 3 10 0 0 0 0 0 0 0 0 0 0 6 10
81 77 77 77 71 65 68 77 77 77 74 81 71 65 68 58 58 61 48 52 42 35 39 42 39 26 35 35 10 19 19 6 0 0 0 0 0 0 0 0 0 0 0
77 74 74 68 71 71 68 71 71 74 71 68 68 61 61 52 55 48 48 48 48 42 42 39 48 29 29 19 10 23 26 6 3 0 0 0 0 0 0 0 0 0 0
81 71 77 74 77 74 68 74 65 71 65 65 58 58 58 58 52 52 48 48 45 39 45 42 42 29 19 26 19 29 26 19 10 3 0 0 0 0 0 0 0 0 0
77 74 74 71 74 74 68 71 68 68 71 65 52 52 52 52 55 55 52 45 48 48 42 42 39 32 26 23 23 26 23 10 13 3 0 0 0 0 0 0 0 0 0
74 74 71 71 68 68 68 68 65 65 58 61 58 61 55 52 55 55 58 48 45 45 52 42 42 35 26 23 19 19 13 19 10 3 0 0 0 0 0 0 0 0 0
77 74 74 71 68 65 61 61 61 61 55 55 58 58 55 58 58 55 52 52 48 48 48 48 39 35 32 19 26 19 19 16 16 10 0 0 0 0 0 0 0 0 0
74 77 77 74 68 65 61 65 65 52 55 55 55 55 58 52 52 48 45 48 48 48 52 39 35 29 26 26 16 19 16 16 23 19 16 3 0 0 0 0 0 0 0
74 74 71 65 61 45 32 16 45 48 52 55 55 52 55 48 39 26 23 26 29 45 45 45 35 35 39 29 29 23 19 16 13 23 16 10 10 10 6 6 0 0 0
68 65 65 58 55 39 16 10 13 42 52 55 52 55 39 32 39 42 23 0 3 0 13 45 39 32 39 39 39 19 26 23 16 23 13 10 13 10 13 3 0 0 0
58 58 61 52 48 42 10 6 6 19 35 48 48 52 52 48 39 42 39 35 35 35 19 23 45 42 35 39 39 32 32 26 19 13 6 3 6 10 6 10 0 0 0
65 58 58 55 52 45 10 0 0 23 35 45 45 45 45 45 29 23 35 42 42 39 19 3 13 19 13 10 23 32 29 19 6 6 6 6 6 10 16 13 3 0 0
52 45 45 48 48 42 19 0 0 26 35 42 42 42 19 23 19 13 35 42 39 39 29 23 16 6 6 10 0 19 29 23 16 6 10 10 6 10 6 6 6 0 0

GEFSMA_con_cape1000_222.txt.gz
Probability
71 71 68 74 58 68 65 61 61 61 55 39 42 39 35 35 42 35 48 74 87 84 81 65 65 74 68 61 48 52 45 39 52 52 52 48 48 42 39 35 39 39 35
77 77 77 77 71 68 65 71 71 71 61 68 55 52 39 35 61 65 48 65 81 90 87 74 68 68 65 58 55 65 48 42 48 52 42 45 52 45 29 39 39 35 32
77 81 81 81 77 77 74 77 77 74 68 65 65 61 52 58 58 71 65 52 55 74 87 87 81 81 68 65 65 61 61 55 58 52 45 45 39 39 32 35 39 35 42
81 81 81 77 84 81 81 74 71 74 74 74 71 65 58 68 61 71 68 65 58 42 58 77 87 81 74 65 65 65 74 68 71 65 45 45 32 39 32 35 35 29 29
81 81 77 84 84 74 81 68 74 81 71 71 71 68 71 74 71 61 61 61 65 65 52 58 81 81 68 61 58 61 68 71 71 65 55 48 45 39 32 29 39 32 23
77 84 77 81 87 84 84 77 77 81 74 77 45 48 68 71 74 68 68 58 68 65 52 52 52 61 68 71 68 65 65 68 74 71 71 58 55 52 39 26 19 23 23
87 87 71 81 87 84 81 77 77 77 81 77 68 65 68 61 58 68 68 61 61 68 68 68 61 52 35 68 68 77 68 71 71 71 71 65 52 42 35 23 16 13 16
87 77 90 87 87 90 90 87 81 74 77 74 81 65 65 55 52 42 58 65 65 61 65 52 61 68 61 45 29 65 65 58 58 65 68 71 65 55 39 29 19 19 16
84 90 90 90 87 87 90 87 84 77 71 71 77 71 61 58 61 58 52 58 58 65 65 68 68 61 55 58 42 32 55 52 55 55 61 68 58 52 42 39 29 26 16
90 90 87 90 90 90 84 84 84 77 84 84 84 87 81 81 61 48 52 52 55 52 58 42 39 55 52 52 45 29 32 35 45 48 58 55 52 48 39 35 35 29 23
90 90 90 94 90 90 90 87 81 84 84 84 84 77 74 84 77 68 52 61 55 58 58 68 42 55 55 42 45 29 26 23 26 29 32 32 32 45 42 42 39 32 35
90 90 87 87 90 90 90 87 81 84 84 81 77 77 81 74 71 52 48 48 55 55 55 55 52 52 52 42 32 23 23 6 6 6 6 13 19 26 26 29 32 32 32
87 90 84 87 87 90 90 90 84 84 81 77 81 81 77 68 68 61 65 48 48 58 65 55 58 48 35 48 23 6 16 6 3 0 3 6 6 10 19 23 23 26 19
87 90 87 87 84 84 87 87 87 84 81 81 71 77 77 71 61 65 68 61 52 52 55 45 55 52 39 45 19 6 16 3 0 0 0 0 0 0 0 3 10 13 16
90 90 81 84 81 81 84 81 81 81 81 81 71 77 74 65 58 65 68 71 55 42 39 39 48 52 42 42 13 19 16 3 0 0 0 0 0 0 0 0 0 0 0
84 74 74 77 74 74 71 81 81 77 77 84 84 68 68 58 55 58 65 68 61 52 42 52 45 42 32 26 13 23 23 6 0 0 0 0 0 0 0 0 0 0 0
74 74 71 74 77 77 81 77 77 74 77 74 71 71 65 65 61 61 58 61 55 48 55 42 45 48 48 39 16 26 19 13 6 0 0 0 0 0 0 0 0 0 0
81 77 71 71 74 77 81 77 71 71 74 71 61 68 61 61 61 61 58 58 55 55 48 48 48 39 45 42 26 32 16 6 6 3 0 0 0 0 0 0 0 0 0
81 74 71 71 71 74 81 81 77 74 74 71 68 68 55 58 55 61 52 55 55 42 61 61 52 45 45 42 39 26 26 16 10 3 3 0 0 0 0 0 0 0 0
81 77 68 68 71 74 74 77 74 77 74 71 68 65 61 61 52 55 52 52 52 48 52 61 48 48 48 35 26 23 16 19 13 3 3 3 0 0 0 0 0 0 0
77 74 77 74 71 65 61 61 65 58 61 65 68 65 61 55 52 48 39 52 52 52 55 58 52 52 45 35 26 23 19 13 16 10 10 10 6 0 0 0 0 0 0
74 74 77 68 65 52 32 42 42 52 52 58 55 52 52 45 35 32 32 29 29 45 48 48 52 48 52 39 35 26 19 13 6 13 10 6 6 10 10 0 0 0 0
68 68 68 71 65 48 29 13 19 39 42 45 48 48 42 35 32 32 26 19 16 10 26 35 42 45 52 48 35 23 29 19 10 13 6 3 6 10 10 3 0 0 0
68 65 61 58 52 48 19 10 6 19 32 35 35 42 55 55 32 39 39 32 35 29 26 13 35 35 42 48 42 39 35 26 19 10 6 3 3 6 6 6 0 0 0
58 58 55 52 52 48 23 6 0 26 42 35 42 39 42 42 29 19 39 42 39 35 19 6 16 23 26 19 29 32 26 16 10 10 6 3 6 6 6 6 0 0 0
52 45 45 48 48 39 26 3 0 32 35 35 39 32 29 29 26 10 19 35 32 32 32 23 13 3 6 6 3 16 26 16 13 10 10 3 6 6 3 3 3 0 0

GEFSMA_con_cape1000_228.txt.gz
Probability
13 3 3 10 10 10 13 6 3 0 0 0 0 0 0 0 0 0 3 74 81 84 87 81 71 68 58 65 55 52 48 55 58 65 65 58 48 42 39 35 35 39 48
10 6 10 3 6 6 6 13 6 6 3 3 0 3 0 0 3 3 3 48 84 84 90 90 77 71 71 61 52 55 52 52 52 61 61 55 58 42 39 35 39 35 45
6 6 6 3 3 6 10 6 3 0 6 3 0 3 0 0 3 3 3 10 35 77 84 84 84 84 74 74 58 58 58 55 55 48 52 52 52 55 42 39 35 35 39
13 10 10 13 10 10 10 3 0 0 0 3 3 0 0 3 3 3 0 6 3 23 61 84 87 81 77 68 74 71 68 65 68 61 52 39 48 42 39 35 32 39 39
16 19 19 19 13 10 6 13 6 6 3 3 0 0 0 3 3 6 6 3 0 0 3 42 87 84 74 65 71 71 68 71 65 61 42 42 42 42 35 29 16 23 26
19 13 16 10 10 10 10 13 10 3 3 0 10 10 3 6 3 3 3 3 3 6 3 13 26 52 77 71 68 68 65 65 68 58 52 48 52 55 42 26 23 23 23
32 23 23 10 13 16 10 16 16 10 3 6 3 3 3 0 6 3 6 10 10 13 6 6 6 6 23 61 71 74 61 58 61 74 61 55 52 48 39 32 26 19 16
29 39 19 19 19 13 10 13 6 10 3 3 3 0 0 0 3 10 6 6 3 3 10 10 3 10 10 16 19 52 68 61 65 61 68 68 52 52 45 32 29 19 16
29 26 26 19 16 13 13 16 19 13 13 6 3 0 0 0 3 0 6 6 6 3 6 6 10 10 13 13 10 26 48 58 55 61 65 61 65 45 35 32 32 29 23
39 39 29 26 19 16 16 13 19 23 16 16 10 3 3 3 0 0 0 0 3 3 3 6 13 13 13 16 10 13 29 32 35 42 48 61 58 45 32 29 26 29 26
39 45 39 29 23 13 13 19 19 16 16 16 16 10 3 3 0 0 0 0 0 3 3 3 3 3 13 13 6 6 16 13 16 23 32 39 45 35 35 32 26 26 32
39 42 42 32 35 26 16 19 19 16 16 19 16 13 3 3 3 3 3 0 0 0 6 6 6 3 3 3 6 16 13 13 13 10 13 13 23 26 23 26 29 32 29
39 35 42 42 35 32 16 16 16 19 19 16 19 13 16 3 3 3 3 3 0 0 0 6 6 6 3 3 6 16 13 10 6 0 3 3 3 6 13 16 23 19 23
39 39 39 42 39 39 35 29 23 16 16 19 23 16 19 16 6 3 3 3 3 3 0 6 3 3 6 0 0 0 0 3 3 0 0 0 0 3 3 3 6 10 10
42 39 35 39 42 45 42 32 23 23 19 23 23 19 19 16 16 13 3 3 3 3 3 0 3 3 3 0 0 0 0 0 0 0 0 0 0 0 0 0 0 3 3
48 42 42 45 45 48 42 35 32 32 32 26 29 29 29 23 13 16 16 10 3 3 6 0 0 3 3 3 0 0 0 0 0 0 0 0 0 0 0 0 0 0 0
52 42 42 45 45 48 35 35 29 32 32 29 29 29 26 23 19 16 16 16 10 10 10 6 0 3 3 3 0 0 0 3 3 3 0 0 0 0 0 0 0 0 0
52 48 39 42 45 35 32 32 29 39 32 32 26 26 23 23 19 19 16 19 13 10 10 10 3 0 3 3 3 0 0 3 0 0 0 0 0 0 0 0 0 0 0
45 55 48 42 42 26 32 32 32 35 35 35 32 26 29 26 23 23 19 16 19 16 10 10 13 3 3 3 3 0 0 0 0 0 0 0 0 0 0 0 0 0 0
52 48 42 42 39 39 39 29 29 26 29 29 29 26 26 23 23 23 23 16 16 16 16 13 16 10 3 3 3 3 3 3 0 0 0 0 0 0 0 0 0 0 0
42 32 35 32 32 29 29 29 26 29 23 23 29 19 16 16 13 16 16 13 13 13 10 13 16 10 10 6 6 6 6 6 3 0 0 0 0 0 0 0 0 0 0
35 32 29 29 39 42 29 19 23 29 29 26 19 19 19 19 19 3 3 6 10 13 13 13 16 16 10 6 6 6 6 6 6 0 0 0 0 0 0 0 0 0 0
32 29 26 29 29 23 19 6 10 19 19 19 19 19 19 19 16 16 3 3 0 0 6 13 13 13 16 3 3 6 6 6 6 3 0 0 0 0 0 0 0 0 0
26 26 26 32 26 26 13 3 3 6 13 16 16 16 16 16 10 16 13 6 6 6 0 3 3 10 6 0 0 6 6 6 6 3 0 0 0 0 0 0 0 0 0
32 29 29 26 23 19 10 3 3 6 6 13 16 16 16 13 3 3 6 10 6 6 0 0 0 0 0 0 0 3 3 3 3 3 0 3 3 3 0 0 0 0 0
29 29 29 26 19 26 10 3 3 3 10 10 13 13 10 10 3 0 3 6 6 6 6 6 0 0 0 0 0 0 3 3 3 3 0 0 0 3 3 3 0 0 0

GEFSMA_con_cape1000_234.txt.gz
Probability
3 6 3 3 3 3 3 3 3 3 0 0 0 3 3 3 3 3 6 35 65 77 65 71 68 52 45 52 55 58 48 48 55 55 45 45 58 55 39 39 32 29 39
3 3 3 3 3 3 3 6 6 6 0 0 0 0 0 0 3 3 10 19 65 81 81 71 71 68 58 65 58 48 48 42 55 55 55 58 55 45 35 32 35 29 32
6 3 3 3 3 3 3 3 3 3 0 0 0 3 3 10 10 13 13 16 35 61 90 90 90 77 71 65 68 58 52 48 61 55 52 52 58 48 42 35 32 35 35
6 3 3 3 3 3 3 3 3 6 6 0 0 3 6 6 6 10 3 6 13 13 48 77 94 90 84 65 61 65 68 71 58 52 55 48 45 45 32 32 32 29 26
6 6 3 3 3 3 6 6 6 6 3 3 3 6 3 0 3 3 0 0 6 13 19 35 77 84 81 71 71 65 68 61 65 55 45 42 42 39 29 29 29 26 23
13 10 6 6 6 6 10 6 3 3 6 3 6 3 3 3 3 3 3 0 6 3 10 16 32 45 68 71 77 81 68 71 65 68 48 45 39 45 32 23 29 23 19
13 6 10 3 3 10 6 6 6 6 6 3 6 3 3 0 0 0 0 0 0 10 13 13 16 16 26 52 68 74 71 55 61 61 61 55 45 39 32 29 26 23 19
10 10 3 3 3 6 3 3 6 6 6 3 3 10 3 3 3 0 3 6 0 6 10 6 19 23 19 19 16 26 58 58 55 61 61 48 39 32 26 26 23 26 23
13 13 10 6 3 6 6 6 10 3 3 6 6 10 10 6 0 0 0 3 6 10 10 13 16 13 13 16 13 10 26 48 55 52 48 52 39 35 29 26 19 19 23
19 16 16 6 3 6 10 13 3 3 3 3 10 6 10 10 3 6 0 0 0 10 10 6 10 6 10 16 13 3 13 35 42 52 48 52 32 29 23 19 26 16 16
26 26 23 16 16 10 13 6 6 3 6 6 6 6 6 6 6 3 6 3 3 0 10 6 10 6 6 6 6 6 3 13 13 19 26 29 29 29 26 19 23 23 26
26 32 35 26 16 13 6 6 6 6 6 6 6 6 6 6 6 3 6 6 3 3 3 6 6 10 3 10 10 6 6 3 3 3 6 13 13 16 16 26 23 16 19
29 29 32 32 16 13 10 10 10 10 6 6 6 6 10 6 6 3 3 6 6 3 3 3 6 6 6 13 13 3 10 6 0 0 3 0 3 6 6 16 19 19 16
29 29 29 32 26 16 16 10 13 10 10 10 10 10 10 10 10 10 6 6 3 6 3 3 3 6 3 10 6 0 13 3 0 0 0 0 0 0 3 3 3 3 3
26 29 32 29 29 23 19 13 13 10 10 10 10 13 13 16 19 16 6 6 3 6 6 10 6 6 3 6 3 3 3 0 0 0 0 0 0 0 0 0 0 3 3
32 39 29 32 32 29 23 19 19 13 13 13 13 13 13 13 16 16 10 6 3 6 10 13 13 10 3 3 0 3 3 0 0 0 0 0 0 0 0 0 0 0 0
29 26 26 23 26 29 26 26 23 16 16 16 16 16 19 19 16 10 13 13 13 6 6 13 10 10 6 6 6 6 6 0 0 0 0 0 0 0 0 0 0 0 0
26 19 26 29 23 23 23 23 19 23 19 16 19 23 23 19 19 16 16 19 16 10 13 16 10 10 6 6 6 6 3 3 3 0 0 0 0 0 0 0 0 0 0
19 19 19 26 23 29 26 23 23 23 16 23 23 26 26 23 26 19 16 19 16 13 10 16 13 10 6 6 6 6 6 3 3 3 0 0 0 0 0 0 0 0 0
23 23 23 23 23 26 23 19 16 19 16 16 16 16 19 19 19 16 13 13 16 19 13 13 13 13 10 6 6 6 6 6 3 3 3 3 0 0 0 0 0 0 0
23 23 26 29 19 19 26 26 19 13 13 16 13 13 13 13 10 10 10 13 13 13 10 10 10 6 6 6 6 6 6 6 6 3 3 3 3 3 0 0 0 0 0
26 26 23 23 23 23 19 10 6 19 13 10 10 10 10 10 6 6 6 6 3 6 6 6 3 3 3 3 6 3 3 3 3 6 3 3 3 3 0 0 0 0 0
26 29 26 26 26 26 3 0 0 3 6 3 3 6 6 13 3 10 3 0 0 0 3 10 6 3 3 6 3 3 0 3 6 6 0 0 0 0 3 0 0 0 0
29 29 26 26 23 16 3 0 0 3 3 6 3 3 6 6 10 10 13 10 3 3 0 0 6 6 3 3 3 6 10 3 3 3 0 3 3 3 0 0 0 0 0
23 19 19 26 19 10 3 0 0 0 3 3 6 6 6 6 6 0 3 13 13 13 0 0 0 0 0 0 0 0 3 6 6 3 3 3 3 3 3 3 0 0 0
16 23 19 16 16 6 0 0 0 3 6 6 6 10 0 0 3 0 6 13 13 13 13 0 0 0 0 0 0 0 3 3 3 3 3 3 3 3 3 3 3 3 0

GEFSMA_con_cape1000_240.txt.gz
Probability
29 26 45 48 39 35 32 35 26 23 19 16 13 13 16 26 23 16 26 52 55 65 48 48 55 55 52 48 52 48 42 45 39 42 45 42 39 29 32 39 32 29 32
26 29 42 52 42 42 26 29 23 35 35 23 23 29 26 23 32 39 19 48 65 65 61 55 58 55 58 52 45 52 42 48 52 52 39 35 42 39 29 29 26 29 35
35 39 39 42 42 45 42 45 35 29 39 29 35 29 26 26 26 45 35 35 58 65 68 68 61 61 61 55 58 58 61 52 61 58 48 42 45 42 42 42 35 35 39
45 61 48 42 48 32 42 42 39 32 39 45 42 39 42 48 42 48 39 48 55 48 77 77 74 74 65 65 61 61 65 61 65 61 61 55 45 45 48 45 45 39 39
48 52 61 55 58 39 39 39 39 42 45 48 35 52 39 42 45 29 35 42 52 61 61 84 74 81 71 68 65 61 61 71 68 65 52 52 52 48 42 42 35 35 35
61 58 68 65 55 45 52 55 55 68 65 61 32 35 35 42 42 42 42 45 42 42 48 58 74 74 74 71 74 71 65 65 61 65 61 48 52 48 48 45 32 29 29
71 77 52 77 74 55 68 48 68 61 58 58 45 35 32 32 29 55 55 45 32 42 52 58 58 58 71 71 65 68 65 71 65 58 55 55 48 52 42 35 32 26 32
68 61 74 68 71 71 71 71 71 58 48 52 45 29 29 35 45 23 42 45 45 48 45 45 52 58 58 65 45 55 58 58 61 61 65 55 48 42 39 32 26 26 23
74 74 71 68 71 68 68 71 74 71 55 52 48 29 26 32 35 29 39 45 58 58 48 45 52 52 61 71 68 52 55 58 52 55 65 52 42 39 35 32 35 26 26
65 61 65 65 65 61 74 65 58 68 68 45 52 55 42 35 29 29 35 29 48 58 55 32 35 55 61 58 61 29 32 42 39 39 42 48 48 39 35 23 26 29 26
65 61 61 68 65 68 65 61 71 68 65 55 45 45 39 39 35 29 35 39 35 35 42 39 29 39 45 52 68 48 26 16 23 35 35 39 35 39 26 29 29 29 26
68 61 61 65 68 65 71 68 68 68 71 65 58 48 52 45 39 35 35 55 42 29 35 39 35 39 39 39 39 23 16 10 6 13 23 19 26 23 26 26 26 26 23
68 74 61 71 65 71 74 74 74 68 71 71 71 58 39 48 48 52 55 52 39 35 39 23 39 35 29 35 55 23 6 3 0 0 0 3 6 10 13 19 23 26 23
48 68 71 77 81 77 68 77 71 71 74 74 61 68 61 45 42 48 55 58 45 39 39 23 29 32 42 39 29 3 35 6 0 0 0 0 0 0 0 0 3 10 10
55 58 65 71 74 77 81 77 71 74 77 71 68 74 68 55 52 45 48 45 48 32 39 35 29 32 42 42 19 29 45 19 0 0 0 0 0 0 0 0 0 0 0
65 65 58 55 65 71 74 77 74 74 71 68 74 74 71 48 52 55 48 48 48 55 42 26 35 32 35 29 23 42 42 23 3 0 0 0 0 0 0 0 0 0 0
68 65 68 65 65 61 71 81 77 77 71 68 65 58 58 58 52 52 45 45 45 45 45 32 32 42 52 45 39 42 45 42 26 3 0 0 0 0 0 0 0 0 0
65 68 68 68 68 65 71 77 68 65 61 65 65 65 61 58 58 55 52 45 48 48 45 48 42 42 45 42 45 42 42 32 39 6 0 0 0 0 0 0 0 0 0
61 61 65 68 68 65 65 65 71 65 61 65 55 58 58 58 58 55 55 45 48 42 48 42 42 45 42 35 45 42 29 45 26 13 3 0 0 0 0 0 0 0 0
58 58 61 61 58 58 58 61 61 61 61 55 58 58 58 58 61 45 48 48 48 45 48 39 32 29 39 39 45 29 29 29 29 16 3 0 0 0 0 0 0 0 0
45 48 52 55 52 45 45 55 52 48 48 45 45 48 52 48 39 48 42 45 48 42 42 35 26 29 26 35 23 23 23 26 32 23 23 16 13 10 0 0 0 0 0
52 52 52 45 48 35 29 23 45 52 48 48 45 45 45 42 19 6 3 3 13 35 35 35 26 23 35 26 29 19 26 26 16 23 23 19 19 19 29 23 0 0 0
42 45 45 45 48 45 19 10 6 42 39 45 48 42 35 19 23 39 13 3 3 0 3 39 29 29 26 23 26 16 29 29 32 23 23 23 26 23 23 6 0 0 0
42 45 45 45 45 42 26 6 3 35 45 48 42 35 29 32 26 32 29 29 32 19 10 6 26 29 23 26 26 26 26 23 29 29 26 23 23 23 10 26 0 0 0
45 45 42 45 48 42 16 6 0 39 39 35 32 32 29 29 16 3 26 29 29 26 3 0 0 3 0 0 13 23 23 26 23 26 26 26 26 26 29 26 13 0 0
42 39 39 42 39 35 16 0 0 23 29 29 32 32 16 23 13 0 23 26 23 26 23 16 3 3 3 6 0 16 19 19 23 19 19 26 23 23 19 19 23 10 0

GEFSMA_con_cape1000_246.txt.gz
Probability
45 39 55 48 42 52 48 48 48 48 45 32 29 29 32 26 26 29 35 74 81 77 74 71 61 61 52 48 52 45 48 42 42 45 39 39 39 39 29 32 29 29 29
58 48 61 55 58 52 52 52 52 55 55 48 42 39 39 39 39 42 32 55 74 84 74 74 65 61 55 55 52 45 42 45 52 58 52 39 52 45 39 42 35 39 29
71 65 61 68 58 55 55 52 45 52 58 52 52 52 48 52 45 48 42 39 52 77 81 81 81 74 61 58 55 55 55 58 68 65 58 61 65 55 42 39 39 35 32
74 71 71 65 65 55 55 58 52 55 55 55 55 52 52 58 52 61 45 58 45 42 68 81 81 81 68 61 58 58 61 61 68 68 58 58 55 55 48 52 48 42 35
65 71 74 74 68 61 65 58 61 61 55 58 58 58 55 55 55 42 52 55 61 58 55 65 84 84 71 71 65 61 58 58 61 61 55 58 52 52 45 48 45 45 42
71 77 74 71 65 68 65 68 68 65 65 71 45 42 52 48 48 52 58 58 65 68 65 58 65 65 81 77 77 81 71 74 68 68 65 52 58 52 45 42 39 45 45
77 77 74 74 68 71 68 61 61 65 61 71 58 52 52 52 48 55 55 58 61 65 65 68 58 52 52 74 77 81 71 68 74 68 65 58 55 58 45 45 42 32 29
77 71 77 74 71 71 74 71 71 68 65 65 65 52 42 52 65 39 58 65 68 68 65 58 74 74 61 48 42 68 74 71 65 65 61 58 58 48 48 42 42 29 26
77 77 81 77 71 71 71 71 74 74 68 68 65 52 45 52 52 58 58 65 65 68 65 71 65 65 68 71 58 48 65 71 65 58 65 61 55 45 42 42 32 29 23
77 74 74 71 71 68 71 71 74 74 71 65 61 71 65 58 55 55 48 48 55 61 68 52 52 68 68 74 68 55 58 58 55 61 68 65 61 42 35 39 39 32 35
77 77 71 74 77 71 71 74 77 74 71 58 65 68 61 68 55 55 45 42 45 52 55 65 61 58 65 61 61 52 42 26 35 45 58 52 45 42 32 32 39 39 39
84 84 74 77 74 77 77 81 77 71 74 74 74 71 71 58 61 55 55 55 45 45 58 65 52 55 55 58 39 32 32 10 6 10 19 29 29 35 35 32 32 32 32
77 87 71 90 81 81 77 81 81 74 71 71 71 71 71 61 71 61 55 42 45 45 55 61 58 55 42 52 32 19 19 6 3 3 3 6 10 23 23 29 35 35 32
77 87 90 84 84 87 71 87 84 84 77 81 71 71 81 74 71 74 65 52 39 32 52 48 55 55 52 52 29 13 13 0 0 0 0 0 0 3 6 10 10 13 6
71 77 74 81 77 77 77 84 84 77 81 77 77 77 77 74 77 68 65 58 52 29 29 45 52 61 58 55 19 23 35 3 0 0 0 0 0 0 0 0 0 3 3
77 81 74 74 81 77 77 77 81 84 81 81 77 77 74 74 74 77 68 58 61 45 35 42 48 48 42 26 23 29 39 16 3 0 0 0 0 0 0 0 0 0 0
77 71 71 68 68 77 77 71 74 74 77 77 77 74 61 61 58 58 58 52 58 52 42 35 48 45 45 39 26 39 42 29 16 3 3 0 0 0 0 0 0 0 0
74 68 68 71 61 61 71 71 71 71 68 65 65 58 55 52 55 55 52 48 48 52 48 39 42 45 48 45 35 45 35 29 29 10 3 0 0 0 0 0 0 0 0
74 68 71 68 65 71 71 68 68 68 61 61 55 55 58 55 55 48 42 39 39 29 48 45 42 45 42 39 35 35 26 32 23 13 0 0 0 0 0 0 0 0 0
68 68 65 65 65 58 58 58 58 58 61 61 52 48 48 45 42 39 32 39 29 32 32 32 29 32 42 39 35 35 26 29 26 13 13 0 0 0 0 0 0 0 0
58 65 61 61 55 48 48 48 58 55 55 52 55 48 45 42 32 35 19 35 29 32 29 29 23 23 29 29 32 26 19 29 29 23 16 13 6 0 0 0 0 0 0
65 61 61 48 42 42 39 39 45 52 55 58 52 48 42 42 32 23 13 3 16 29 32 23 16 16 19 16 23 16 13 13 13 16 16 13 13 6 13 6 0 0 0
58 52 52 45 42 42 35 26 32 48 55 52 52 42 35 32 32 35 13 6 3 3 3 23 19 23 19 13 19 16 13 13 10 16 16 13 10 19 16 10 0 0 0
55 48 45 42 39 35 35 19 16 32 45 45 42 42 35 35 23 29 29 26 23 19 13 6 23 32 29 19 23 16 10 10 6 10 10 10 10 10 10 10 3 0 0
52 48 48 48 42 32 26 10 6 39 42 39 35 35 32 29 23 16 29 29 23 23 13 10 10 10 3 3 6 10 10 6 6 6 10 10 13 13 10 10 6 0 0
42 39 42 42 39 35 16 3 3 23 29 29 29 29 19 19 13 0 13 19 29 26 23 10 6 3 0 0 0 3 6 6 6 6 13 13 6 10 10 10 10 3 3

GEFSMA_con_cape1000_252.txt.gz
Probability
3 0 10 10 6 6 6 6 10 6 6 3 6 6 3 3 6 10 10 61 71 77 77 77 65 61 61 55 52 58 61 61 55 55 52 42 29 19 19 19 23 35 39
3 3 3 3 3 3 6 10 10 3 3 3 6 6 6 6 6 6 10 29 74 81 74 77 74 71 68 65 61 58 58 58 65 71 61 55 39 39 32 32 32 32 35
3 3 3 6 3 3 3 6 3 3 6 10 10 6 6 6 6 6 6 6 39 71 77 77 81 81 77 71 58 61 55 65 61 71 71 61 48 42 45 48 52 52 42
6 6 6 6 3 6 6 6 10 13 10 6 3 3 3 3 3 3 6 10 10 16 58 68 74 84 77 74 68 61 65 61 71 68 74 71 58 52 52 48 45 45 32
10 6 6 6 13 6 6 13 10 10 10 6 6 3 3 3 3 3 10 6 10 13 6 55 68 77 77 71 71 68 68 61 65 61 58 61 61 68 48 42 35 32 35
10 13 10 16 13 10 6 10 10 10 10 10 13 13 10 6 6 3 6 6 6 6 10 10 35 55 74 77 77 58 65 65 58 55 55 55 55 58 48 39 29 29 32
16 13 16 16 16 13 10 6 6 6 10 6 6 6 6 3 10 6 3 3 3 6 6 10 10 16 35 68 74 71 68 65 71 61 58 58 52 55 42 35 26 26 29
13 23 13 16 16 13 13 6 10 10 10 10 10 6 3 3 3 10 10 6 6 6 10 10 6 13 13 13 13 65 68 65 61 61 61 68 68 61 35 29 26 23 19
26 26 23 16 16 10 10 13 13 6 13 10 13 10 3 3 3 3 6 6 6 6 6 6 13 10 3 6 10 16 48 65 58 68 71 65 61 45 39 35 32 29 23
35 29 23 16 23 19 16 13 16 13 10 13 13 6 3 10 3 3 3 3 6 6 3 6 10 10 6 6 10 10 23 35 48 58 68 68 52 42 32 29 32 35 32
35 35 29 26 26 29 23 19 16 19 19 19 19 13 10 6 6 6 3 3 3 6 10 6 10 10 10 6 6 6 13 16 26 48 61 58 52 42 39 32 32 32 35
39 35 39 32 29 35 29 23 23 26 26 26 19 13 10 6 6 6 6 3 3 3 6 6 6 10 10 10 10 23 10 6 6 10 19 29 45 45 42 45 35 32 32
42 39 39 39 35 35 39 32 29 29 29 26 26 26 19 13 13 6 6 6 6 3 3 3 0 6 10 10 10 23 23 6 0 0 0 0 10 19 32 39 39 29 35
39 42 39 35 35 39 35 35 39 35 35 32 29 26 19 13 16 16 16 10 10 6 3 3 3 3 6 10 10 3 6 0 0 0 0 0 0 3 3 10 10 16 16
32 35 32 32 35 35 39 35 32 32 32 35 26 26 23 16 19 23 19 13 10 10 10 3 3 3 6 6 3 3 3 3 0 0 0 0 0 0 0 3 3 6 3
35 32 35 39 39 42 42 42 35 32 32 29 29 23 19 26 23 19 26 16 10 10 10 6 6 3 6 6 3 3 3 3 0 0 0 0 0 0 0 0 0 0 0
39 32 39 35 42 42 42 42 42 39 35 35 32 26 23 26 26 23 19 16 13 13 13 10 6 6 3 3 0 0 0 6 6 3 0 0 0 0 0 0 0 0 0
35 35 32 35 35 39 42 42 42 39 39 39 39 29 26 32 26 23 19 16 16 10 10 10 6 6 6 6 3 0 6 3 6 3 3 0 0 0 0 0 0 0 0
42 39 39 39 39 39 42 42 35 39 35 39 42 39 26 23 23 23 16 13 6 6 6 6 6 6 6 6 3 0 6 0 0 0 3 0 0 0 0 0 0 0 0
42 42 39 39 39 39 35 35 39 35 39 39 39 42 26 26 26 23 19 16 10 6 6 6 6 6 6 6 3 6 6 3 3 3 3 0 0 0 0 0 0 0 0
45 42 39 35 35 32 32 29 29 32 32 29 26 35 29 26 26 23 23 16 10 10 10 3 3 6 6 6 6 6 6 6 3 0 3 3 3 0 0 0 0 0 0
42 42 39 39 39 32 32 26 26 29 29 26 26 26 19 23 23 16 13 13 6 10 10 6 6 3 3 3 3 3 6 6 3 0 0 3 3 3 3 0 0 0 0
35 39 39 39 32 32 29 29 23 29 29 26 23 19 19 19 16 19 13 13 10 3 0 6 6 6 3 3 3 3 3 3 3 3 0 3 3 3 3 3 0 0 0
26 26 29 29 26 23 26 26 19 13 13 23 19 19 19 13 13 10 16 16 13 10 6 6 6 6 6 3 3 3 3 3 3 3 3 3 3 3 3 3 0 0 0
16 16 23 19 23 23 16 16 13 16 10 10 10 13 16 13 6 3 3 6 3 0 3 3 3 3 0 0 0 3 0 3 3 3 0 0 0 0 0 0 0 0 0
16 16 19 16 19 16 16 16 3 13 13 10 6 10 6 6 6 3 3 3 0 0 0 3 3 3 0 0 0 0 0 0 0 0 0 0 0 0 0 0 0 0 0

GEFSMA_con_cape1000_258.txt.gz
Probability
6 0 0 3 3 6 10 6 10 10 10 10 10 10 6 13 13 16 13 42 77 77 77 77 68 65 55 58 61 61 55 48 48 52 45 39 39 35 26 26 26 29 29
3 0 0 0 3 3 3 3 10 10 6 6 6 6 6 10 13 16 13 23 65 77 84 74 77 74 71 71 65 65 68 68 65 55 48 45 48 35 29 29 32 29 32
6 6 3 3 3 3 3 3 6 6 6 3 6 6 10 6 13 13 13 13 32 58 77 77 74 74 74 71 71 65 61 65 68 61 55 48 52 39 35 32 29 32 39
6 6 3 3 3 3 6 6 6 13 10 6 6 3 6 6 6 10 13 19 19 23 45 71 74 77 74 71 71 71 71 68 65 61 58 55 48 55 52 42 35 32 32
3 3 3 3 3 6 6 6 10 10 10 10 6 10 6 6 10 6 6 13 13 10 19 29 68 71 65 68 71 68 74 68 68 61 58 55 48 48 52 48 39 39 35
6 3 3 3 6 10 10 6 10 6 6 10 6 10 10 10 6 10 10 10 13 13 16 13 29 45 61 61 65 71 65 68 68 61 55 48 48 45 48 45 35 29 26
6 3 3 6 6 6 10 6 6 6 6 10 6 6 10 3 3 10 10 13 13 10 13 16 23 19 26 52 52 65 52 58 65 65 55 48 45 48 45 35 29 26 19
10 6 3 6 6 10 6 3 6 6 6 6 6 13 10 3 3 3 3 10 10 10 6 6 16 13 13 16 13 35 58 61 58 61 61 52 48 42 42 39 32 29 16
10 10 10 6 6 6 10 3 10 6 6 6 6 13 10 10 6 6 3 3 6 6 6 13 10 16 13 10 16 13 35 58 58 55 58 58 52 45 32 32 29 23 16
13 13 13 13 13 10 6 6 6 6 10 10 10 10 10 10 13 10 10 6 10 6 6 6 10 6 10 13 6 6 10 23 42 55 52 55 45 39 35 35 35 32 23
13 19 23 19 13 13 6 6 10 10 10 13 13 16 16 10 6 6 10 10 6 6 6 6 6 10 10 6 13 6 3 6 3 19 42 42 45 42 39 35 39 35 35
13 23 23 23 16 13 13 13 13 10 10 10 10 13 16 10 6 6 6 10 13 13 13 10 3 6 19 19 10 6 6 0 0 3 3 16 19 29 39 35 32 29 26
16 16 26 26 26 16 16 19 16 19 16 13 13 13 16 10 10 10 10 10 13 13 13 10 3 3 6 16 16 6 6 0 0 0 0 3 3 6 16 16 29 32 29
16 19 23 23 23 26 26 26 26 23 19 19 19 19 19 19 10 10 16 16 16 13 13 10 10 0 3 6 13 0 6 0 0 0 0 0 0 0 3 3 6 6 6
16 16 26 23 23 26 26 26 26 29 29 23 19 23 19 19 13 13 16 16 16 13 10 10 10 6 3 10 0 6 10 0 0 0 0 0 0 0 0 0 0 0 0
19 19 26 29 26 23 23 23 26 26 29 29 26 16 23 16 13 13 13 16 16 16 10 13 13 6 10 6 6 6 10 0 0 0 0 0 0 0 0 0 0 0 0
23 23 23 23 26 26 26 23 26 32 32 32 32 29 26 26 19 16 19 19 13 10 10 10 10 13 13 10 10 10 6 3 3 0 0 0 0 0 0 0 0 0 0
23 26 23 23 26 29 29 32 29 32 32 29 29 26 26 26 19 16 16 16 13 10 10 10 13 13 6 6 6 6 6 3 3 3 0 0 0 0 0 0 0 0 0
26 29 29 26 26 32 32 32 32 32 29 29 32 32 29 29 23 19 16 13 16 13 10 13 10 10 10 6 6 6 6 6 3 3 3 0 0 0 0 0 0 0 0
16 26 32 32 39 35 35 32 32 26 26 29 29 35 35 29 29 23 19 16 10 10 16 13 13 13 10 6 6 6 6 6 3 3 3 3 3 0 0 0 0 0 0
19 19 19 26 32 35 39 32 32 29 29 32 32 32 29 23 19 19 16 19 13 10 10 10 10 10 6 6 10 10 10 10 6 3 3 3 3 3 3 0 0 0 0
19 19 23 23 19 23 19 16 13 26 26 29 29 26 26 23 23 10 10 10 13 10 10 10 10 10 10 6 6 6 10 13 13 3 3 3 3 3 3 3 3 0 0
19 23 23 19 23 19 16 13 13 19 23 19 23 23 19 19 13 19 6 6 6 3 3 10 6 6 6 6 6 6 6 6 6 6 3 3 0 6 6 3 0 0 0
19 23 23 19 19 16 13 10 6 10 13 13 16 16 16 19 16 16 13 10 6 3 0 0 0 3 0 0 3 3 3 3 6 3 0 0 0 0 0 3 0 0 0
19 19 19 19 19 16 10 6 0 10 10 13 13 13 13 16 13 3 10 6 3 3 0 0 0 0 0 0 0 0 3 6 6 3 0 3 3 3 3 3 0 0 0
19 19 19 16 16 13 10 6 3 10 10 10 10 10 10 6 3 0 3 6 3 6 3 0 0 0 0 0 0 0 0 3 3 3 0 3 3 3 3 3 0 0 0

GEFSMA_con_cape1000_264.txt.gz
Probability
29 35 48 48 39 39 29 29 26 29 26 23 26 26 26 19 19 26 48 68 74 74 74 61 65 68 61 55 61 58 48 42 48 58 45 42 35 32 23 26 26 26 16
39 39 48 58 45 42 39 45 26 29 29 32 29 29 29 23 26 26 35 52 65 74 74 68 74 65 61 58 68 68 61 48 52 55 55 55 55 52 39 35 39 32 29
48 42 42 52 48 45 45 48 29 32 35 32 32 26 26 26 29 35 29 48 55 58 68 74 65 65 65 65 68 71 68 68 55 55 58 61 55 48 42 35 42 35 32
42 55 42 35 35 45 45 45 39 29 32 35 35 26 26 32 29 39 32 39 45 42 61 61 65 61 61 65 61 68 71 71 58 55 52 58 55 52 42 39 32 39 29
32 52 55 48 45 35 45 35 45 45 42 42 39 32 26 32 35 29 26 32 45 45 42 61 58 55 61 65 65 68 68 65 58 58 52 52 48 48 45 42 39 42 35
48 55 52 45 42 48 45 45 42 55 48 48 29 23 26 26 29 29 29 29 45 42 39 45 55 55 48 55 61 58 58 58 58 58 55 52 52 45 45 42 39 29 26
58 65 52 55 55 52 52 39 45 42 39 42 39 39 35 19 19 42 32 42 35 35 35 48 52 52 55 52 52 61 58 58 55 58 58 52 52 55 52 42 29 23 23
58 35 68 48 48 65 58 52 55 55 42 39 39 39 29 23 39 19 29 35 32 29 29 35 45 52 45 45 35 52 55 58 55 61 61 58 48 52 52 45 39 29 19
48 45 55 61 65 48 48 61 65 61 52 39 48 42 29 32 35 29 32 35 39 45 32 35 42 45 42 45 48 35 42 58 55 55 58 55 58 55 48 42 35 29 26
48 48 58 58 65 55 61 52 42 52 55 42 42 48 45 42 39 45 39 35 42 42 35 26 29 35 42 48 52 35 39 35 45 45 48 52 58 48 42 42 39 35 32
65 58 58 65 61 61 65 58 55 55 58 52 42 52 45 55 42 45 35 48 48 32 39 42 32 32 29 39 55 39 16 10 13 23 32 39 45 45 42 39 39 32 29
65 61 65 65 65 61 65 58 68 58 58 52 58 48 48 35 45 42 39 52 48 35 32 35 32 32 32 35 39 23 16 3 0 0 10 10 26 32 32 26 35 39 32
61 68 61 68 65 61 61 61 65 61 55 55 55 55 52 52 48 58 55 48 39 35 42 29 29 39 32 32 55 23 19 10 0 0 0 0 6 10 16 19 19 23 32
61 65 65 65 65 65 61 74 61 52 61 61 52 52 52 48 52 52 52 52 45 45 45 39 39 35 29 35 23 10 32 6 3 0 0 0 0 3 3 6 6 13 13
61 58 58 58 61 68 68 71 65 55 61 58 52 52 52 45 45 58 48 55 48 48 39 45 45 35 26 29 23 39 45 26 3 3 0 0 0 0 0 0 0 0 0
58 61 61 58 55 65 65 68 61 68 71 61 65 58 61 48 52 45 55 45 45 45 35 35 52 29 32 23 19 32 35 19 6 3 0 0 0 0 0 0 0 0 0
55 48 52 58 58 58 65 68 52 55 52 52 45 45 52 55 55 42 42 45 45 48 42 45 32 32 42 39 29 35 32 29 29 3 3 0 0 0 0 0 0 0 0
52 52 52 52 55 58 61 58 55 52 52 52 45 48 48 48 52 48 45 42 42 48 39 42 42 29 32 35 32 45 29 23 19 6 3 3 0 0 0 0 0 0 0
55 52 52 52 52 55 58 55 55 55 55 48 52 55 52 48 55 52 52 45 39 39 39 35 39 45 35 29 35 29 23 32 19 13 6 3 0 0 0 0 0 0 0
52 48 48 48 45 48 48 52 52 55 52 52 52 45 48 48 48 48 48 52 45 42 42 39 35 39 42 35 35 23 16 23 23 16 10 6 3 3 0 0 0 0 0
48 48 48 45 39 39 35 39 42 39 48 45 45 45 45 45 42 42 35 45 45 42 39 45 32 29 29 35 23 19 19 26 32 19 23 16 19 16 10 3 0 0 0
48 48 48 48 39 29 26 23 29 32 35 39 42 45 45 42 23 16 10 10 23 39 35 32 29 32 32 35 32 26 26 23 19 16 23 13 13 16 19 19 0 0 0
55 52 45 45 42 29 16 16 19 29 29 32 29 35 29 19 26 29 16 3 3 3 6 32 26 32 26 32 32 26 29 26 26 16 23 13 16 16 10 6 0 0 0
48 48 45 42 39 29 13 10 10 26 26 29 32 23 23 23 16 23 19 19 23 23 19 19 26 26 23 23 26 26 26 26 26 26 26 19 13 13 6 6 0 0 0
45 39 39 39 29 26 16 10 3 23 26 26 19 23 19 16 13 10 16 19 23 26 10 6 6 10 3 3 10 13 19 16 10 10 16 13 10 13 16 16 3 0 0
42 35 29 32 32 29 16 6 0 19 26 19 23 16 10 10 10 6 16 16 19 26 19 13 6 3 6 3 0 3 10 16 10 10 13 13 10 10 10 10 13 10 0

GEFSMA_con_cape1000_270.txt.gz
Probability
65 48 58 52 45 42 45 48 52 39 42 35 32 23 26 35 42 35 42 65 68 71 68 74 65 58 58 61 61 65 58 48 55 61 61 55 45 35 29 29 26 29 29
65 68 58 55 48 39 48 48 42 45 45 45 45 42 35 23 42 52 42 55 68 68 68 74 74 68 61 61 58 61 65 65 58 55 58 58 55 55 52 39 42 42 29
68 58 68 52 48 52 52 48 52 52 48 42 48 35 35 42 39 45 48 45 45 65 68 68 71 68 65 61 61 61 61 65 65 65 58 52 52 48 52 52 48 42 39
61 68 65 65 55 48 55 55 55 45 45 45 55 45 42 52 52 52 48 55 52 42 55 61 65 68 65 68 65 61 65 65 65 61 61 58 55 48 48 48 45 39 32
61 61 61 65 65 55 55 45 45 48 48 52 52 45 42 48 55 42 45 48 48 58 39 58 65 65 68 65 68 58 61 58 61 58 55 58 58 58 48 45 42 42 35
58 65 74 71 58 55 55 52 48 52 55 52 42 35 39 42 42 45 42 45 48 52 55 42 52 55 61 65 61 58 58 58 58 61 48 48 48 58 58 52 39 42 39
74 74 58 65 65 61 58 52 48 52 55 52 48 39 45 39 45 52 52 48 48 45 48 52 42 39 42 48 45 61 52 52 55 55 52 52 52 52 52 52 42 35 39
74 52 71 61 61 61 55 58 58 48 48 55 52 45 42 39 52 29 48 55 48 52 48 42 55 58 42 35 29 45 52 52 55 55 55 48 45 45 45 48 42 39 32
71 71 68 65 65 55 58 58 61 58 55 61 55 55 39 35 45 48 48 39 45 52 45 42 52 55 52 42 32 32 48 52 55 58 52 48 52 52 45 45 45 42 35
68 65 71 74 74 65 65 55 52 58 61 55 61 61 55 58 45 39 35 42 48 45 42 35 29 42 42 42 52 29 39 39 52 52 55 52 52 55 48 45 42 45 39
71 68 71 71 74 68 61 58 61 58 58 55 58 58 48 55 45 39 26 42 42 45 48 48 39 32 35 39 42 29 29 35 32 45 48 52 52 39 39 42 39 42 39
81 68 71 71 71 68 74 71 65 61 61 61 58 58 48 55 45 48 29 39 42 45 48 45 45 35 35 39 35 32 23 19 16 16 23 32 42 39 39 35 35 39 39
74 74 71 71 71 68 71 71 71 65 65 61 61 61 58 52 52 48 45 48 42 45 58 55 45 39 32 32 35 35 29 16 3 0 0 3 10 19 26 32 35 35 39
65 71 65 68 71 68 65 68 65 71 71 65 58 61 61 52 55 48 39 45 42 45 52 48 52 48 45 32 29 29 23 10 3 0 0 0 0 0 6 10 10 10 16
65 65 61 65 61 65 71 77 77 77 77 71 68 65 65 58 52 55 61 55 39 29 29 45 42 42 45 42 29 26 35 16 3 3 0 0 0 0 0 0 3 3 6
58 58 58 55 52 58 58 77 74 74 81 74 71 65 55 45 48 55 55 55 48 39 29 39 35 39 35 26 13 29 32 19 6 3 3 3 0 0 0 0 0 0 0
55 55 61 58 58 58 58 65 68 74 68 61 58 52 55 55 48 55 48 48 48 42 42 39 35 39 42 35 19 32 26 16 19 13 3 3 3 0 0 0 0 0 0
52 55 58 61 55 52 55 55 48 45 52 55 55 55 52 45 48 48 55 48 48 48 42 35 42 45 39 39 35 32 29 23 26 13 6 3 3 3 0 0 0 0 0
55 58 55 52 52 48 48 48 42 39 42 39 45 52 48 52 52 52 55 55 55 39 48 35 39 42 39 39 35 32 19 29 19 13 6 3 3 3 0 0 0 0 0
58 55 55 55 55 52 48 45 42 42 45 39 35 39 39 45 45 52 45 45 45 45 39 35 32 39 39 35 32 32 26 26 19 10 3 3 6 6 3 3 0 0 0
52 55 55 55 55 48 45 45 45 42 42 42 42 35 39 29 26 26 23 45 42 42 39 32 23 29 29 26 19 23 16 19 19 10 6 6 3 3 3 0 0 0 0
48 52 52 55 52 45 32 32 42 42 42 42 39 32 29 23 19 19 13 16 19 19 26 26 23 26 29 23 23 13 13 13 16 13 10 6 6 3 3 3 0 0 0
48 45 45 45 39 39 23 23 29 35 39 39 39 35 26 19 23 23 10 10 10 10 10 26 16 19 23 19 13 13 16 13 16 16 6 3 13 10 6 3 0 0 0
48 48 48 45 42 29 23 10 13 32 35 35 39 35 32 23 13 13 19 10 10 10 10 10 10 13 13 19 16 16 16 13 13 16 16 6 10 10 6 6 0 0 0
52 48 48 48 45 29 19 6 3 32 39 39 42 35 32 26 10 6 10 13 16 16 6 6 6 6 6 3 3 10 13 6 6 10 13 13 10 6 10 6 3 0 0
52 45 48 45 42 39 19 6 3 29 35 35 39 29 13 10 3 6 6 13 10 10 6 6 6 6 6 6 0 3 6 10 6 6 10 3 0 3 0 6 3 0 0

GEFSMA_con_cape1000_276.txt.gz
Probability
3 3 3 3 6 6 3 6 10 10 10 10 6 6 6 13 13 10 13 58 65 65 71 68 68 68 71 71 61 61 61 58 58 58 58 48 42 42 35 23 26 32 35
6 10 3 3 3 6 10 10 10 10 10 13 6 6 16 13 13 16 13 39 65 71 71 71 71 71 65 65 68 68 61 58 61 58 58 55 48 42 42 32 29 26 29
6 10 3 3 6 6 10 13 13 13 13 13 6 10 10 10 10 13 16 23 35 58 71 74 71 71 71 65 61 65 61 65 65 65 58 55 55 52 55 48 42 35 29
6 6 6 10 3 3 6 13 13 16 16 10 10 10 6 6 13 13 16 19 13 16 52 61 65 65 68 65 65 58 61 61 65 61 52 52 52 52 48 45 39 35 35
13 10 6 10 6 3 3 13 16 16 13 16 13 13 13 6 6 13 13 10 6 10 13 35 61 61 61 61 68 58 61 55 48 55 58 52 48 48 42 42 45 35 35
13 6 10 10 13 3 3 10 13 13 16 16 16 13 10 6 6 6 10 10 6 6 13 10 35 45 55 65 68 65 52 55 52 52 52 52 48 48 39 39 42 35 32
10 13 13 6 10 10 13 13 16 16 13 16 13 10 10 6 6 6 6 10 6 3 6 6 6 23 32 55 58 55 48 45 52 48 48 48 48 45 48 42 42 29 32
10 19 6 10 10 13 16 13 23 23 19 13 10 10 0 0 3 3 3 10 6 3 6 10 6 6 6 10 29 52 58 55 52 52 48 45 45 42 42 39 32 32 32
19 13 16 16 13 13 23 23 19 16 19 19 10 6 0 3 0 0 3 6 6 3 3 6 6 3 3 3 10 26 52 58 52 52 52 52 48 42 42 42 35 32 26
23 19 19 19 26 23 23 26 23 23 23 13 10 13 10 6 0 0 0 6 3 3 6 13 13 6 3 3 6 16 23 29 45 55 52 52 52 48 42 39 32 35 35
26 26 26 16 23 26 26 26 26 26 26 16 13 13 13 10 6 0 6 6 3 3 6 6 6 6 3 3 3 6 19 19 26 35 48 52 55 42 39 35 35 42 35
32 32 29 32 32 32 35 32 32 32 32 23 19 16 13 10 10 6 6 3 3 6 6 6 6 3 3 3 3 6 13 16 13 13 16 26 39 39 35 35 39 39 35
26 26 26 29 32 39 35 35 35 32 29 29 26 19 16 13 10 6 3 6 6 6 6 6 3 3 3 3 3 13 13 6 6 3 3 6 10 19 29 35 39 39 39
26 26 26 26 29 35 35 35 32 32 29 29 29 26 19 16 13 13 10 6 6 6 6 6 6 3 3 3 3 3 3 3 3 3 0 0 0 3 3 3 6 13 19
26 29 29 26 23 26 32 32 32 35 35 29 29 29 19 23 19 19 13 6 6 6 6 6 6 3 6 6 3 3 3 3 6 6 3 3 0 0 0 0 0 3 3
26 26 26 29 29 29 26 29 29 29 29 26 26 29 29 26 19 16 13 13 10 6 6 6 3 3 3 10 6 3 6 6 6 6 3 0 0 0 0 0 0 0 0
26 23 26 29 29 29 29 26 26 26 26 23 23 26 26 23 19 16 13 13 13 10 10 10 6 3 3 0 3 0 0 3 3 3 3 0 0 0 0 0 0 0 0
26 26 26 26 32 32 32 29 29 32 29 26 26 26 26 23 16 16 13 13 13 13 10 6 6 3 3 0 0 0 3 3 0 0 0 0 0 0 0 0 0 0 0
29 26 29 29 29 32 32 32 35 32 29 29 29 26 23 19 16 16 16 16 16 13 6 6 6 6 3 3 3 3 3 0 0 0 0 0 0 0 0 0 0 0 0
23 26 26 26 29 26 26 29 32 29 29 26 26 26 23 19 16 16 16 13 13 13 10 6 6 3 3 3 3 0 0 0 0 0 0 0 0 0 0 0 0 0 0
26 26 23 23 23 23 23 23 26 23 23 26 26 26 23 23 19 16 13 13 13 13 10 6 3 3 3 0 3 3 3 0 0 0 0 0 0 0 0 0 0 0 0
26 23 26 23 23 19 23 19 23 19 23 23 23 19 23 23 19 13 13 13 13 13 10 3 3 3 0 0 0 3 3 3 3 0 0 0 0 0 0 0 0 0 0
26 29 26 26 26 26 23 19 23 16 16 19 19 16 19 16 13 13 13 6 6 6 6 3 0 0 0 0 0 6 3 3 3 3 0 0 0 0 0 0 0 0 0
23 23 23 19 26 26 19 19 16 13 16 13 13 16 13 13 13 10 6 3 3 3 3 3 0 0 0 0 3 3 3 3 0 0 0 0 0 0 0 0 0 0 0
23 19 23 23 23 19 16 16 10 13 13 13 10 10 13 13 13 10 3 3 3 3 3 3 0 0 0 0 3 0 0 0 0 0 0 0 0 0 0 0 0 0 0
19 26 23 23 19 16 16 13 10 10 10 6 6 6 10 10 10 0 3 3 3 3 3 3 3 0 0 0 0 0 0 0 0 0 0 0 0 0 0 0 0 0 0

GEFSMA_con_cape1000_282.txt.gz
Probability
3 3 3 3 6 6 6 3 6 10 13 10 13 10 13 16 16 16 19 42 65 68 71 77 71 65 68 71 71 61 58 52 55 55 55 48 45 35 39 39 23 23 19
3 3 3 3 3 3 3 6 6 13 10 13 13 10 13 13 13 16 19 23 58 65 65 71 71 71 68 61 68 65 65 61 55 55 52 55 55 55 48 35 39 26 26
6 3 3 3 3 6 3 13 13 10 13 13 10 10 13 10 10 10 16 19 23 48 61 68 68 65 68 58 58 58 65 65 61 58 55 48 48 42 52 52 45 42 32
6 3 3 3 6 6 3 13 13 13 13 13 6 13 10 10 10 6 16 16 16 19 39 52 55 58 65 52 52 55 61 61 61 55 48 45 45 39 39 35 39 39 32
10 6 10 3 6 0 3 6 13 10 13 13 16 13 13 3 6 6 13 13 16 16 19 23 52 55 58 55 58 55 48 55 52 52 45 45 48 45 45 39 35 32 29
10 10 10 6 3 0 6 3 10 13 13 13 13 13 10 6 6 10 13 13 16 16 19 19 29 42 55 52 48 52 52 55 48 45 35 35 39 42 42 42 39 35 29
13 13 13 6 6 6 3 6 10 10 10 10 10 6 6 3 3 6 10 16 13 16 16 16 16 19 23 39 48 48 52 52 55 45 39 42 42 39 39 39 35 35 29
10 19 6 0 3 6 10 10 10 13 16 13 10 6 3 0 6 3 3 6 6 10 6 10 19 19 16 26 23 29 42 48 42 42 39 48 39 39 35 32 35 32 26
10 6 6 6 3 3 6 6 13 13 19 16 13 10 10 3 3 3 0 6 6 6 3 10 6 13 13 13 19 13 32 39 42 32 35 48 42 32 35 32 35 32 32
10 10 10 10 10 10 10 10 16 16 19 19 13 10 10 6 6 6 6 10 10 6 6 3 6 6 10 13 10 3 6 16 32 39 35 45 45 42 39 42 39 39 26
13 16 16 13 13 10 13 13 16 19 19 19 19 19 13 6 3 6 10 10 10 10 6 10 13 10 6 3 3 3 3 6 10 19 39 39 42 42 42 42 39 32 29
16 19 23 19 16 16 16 19 23 19 19 23 23 19 13 13 10 10 10 10 6 6 10 10 10 6 3 3 3 3 3 3 0 3 6 6 16 32 35 35 35 29 29
16 16 16 19 19 19 19 19 32 29 26 26 26 23 13 13 13 10 10 6 6 10 10 6 6 6 3 3 3 3 0 0 0 0 0 3 3 3 6 10 19 19 23
16 16 19 16 19 19 19 23 29 26 26 26 26 26 16 13 10 10 10 10 10 6 6 10 6 3 0 3 0 0 3 0 0 0 0 0 0 3 3 3 3 3 6
16 16 23 19 23 23 26 26 26 29 23 19 26 23 16 10 10 10 10 10 10 10 10 10 6 6 3 3 0 3 3 0 0 0 0 0 0 0 0 0 0 0 0
16 16 19 19 23 19 19 19 19 19 23 23 19 23 23 23 16 10 10 10 10 13 13 13 10 13 0 0 0 3 3 0 0 0 0 0 0 0 0 0 0 0 0
16 23 19 16 19 19 19 19 19 19 23 19 19 23 23 26 23 16 10 10 10 10 13 13 13 6 3 6 6 6 6 3 3 0 0 0 0 0 0 0 0 0 0
16 23 23 19 16 19 19 19 19 23 23 23 26 23 26 19 19 16 13 13 13 13 13 16 13 10 6 6 6 3 0 0 0 0 0 0 0 0 0 0 0 0 0
16 16 19 16 16 19 19 19 19 23 23 19 19 19 23 19 19 19 16 16 16 16 13 13 13 10 10 3 3 0 0 0 0 0 0 0 0 0 0 0 0 0 0
19 19 13 16 16 13 16 16 19 19 19 16 16 16 19 16 19 19 19 16 16 13 13 13 13 10 10 0 0 3 3 0 0 0 0 0 0 0 0 0 0 0 0
23 19 19 16 13 16 13 13 16 19 19 19 19 23 23 16 16 16 16 16 13 13 13 13 13 10 3 0 0 0 0 6 3 0 0 0 0 0 0 0 0 0 0
19 19 16 16 13 16 13 13 13 16 16 19 19 23 23 23 19 13 13 10 10 10 10 13 13 13 3 0 0 0 3 3 3 0 3 3 0 0 0 0 0 0 0
19 19 19 16 16 16 13 10 6 16 19 19 19 19 19 16 13 13 13 6 6 6 3 10 6 6 6 6 3 3 6 3 6 3 0 6 0 0 0 0 0 0 0
16 16 16 16 16 13 10 6 10 13 19 19 16 13 16 16 13 13 13 13 13 13 6 3 6 6 6 6 3 6 3 3 3 0 0 3 3 0 0 0 0 0 0
13 13 13 13 13 13 3 6 6 13 13 10 10 6 10 10 6 3 6 13 13 10 10 3 0 0 0 0 0 3 3 3 3 3 0 0 0 0 3 3 0 0 0
13 13 10 10 10 6 3 3 6 10 13 10 6 6 6 3 3 0 0 3 6 10 10 6 3 3 0 0 0 0 3 3 3 3 3 0 0 0 3 3 0 0 0